Location: Devore Heights
(34.2372°N, 117.4156°W)
Time: 19:27:28
(UTC+00:00)

S-56A Canister/Altair - Pass Details

Date: 13 September 2024
Orbit: 636 x 2487 km, 38.9° (Epoch: 14 October)

Event Time Altitude Azimuth Distance (km) Brightness Sun altitude
Rises 11:11:03 0° 279° (W) 5,457 - -28.7°
Reaches altitude 10° 11:16:07 10° 262° (W) 4,734 - -27.8°
Maximum altitude 11:23:59 18° 226° (SW) 4,391 - -26.3°
Exits shadow 11:29:52 14° 200° (SSW) 4,808 11.2 -25.2°
Drops below altitude 10° 11:32:30 10° 191° (S) 5,137 11.4 -24.7°
Sets 11:38:33 0° 174° (S) 6,096 12.0 -23.6°
